GW1765 Weather Reports


time (UTC)temp
C
wind
direction
speed
KPH
gust
KPH
rain 1hr
cm
rain 24hr
cm
rain mn
cm
humidity
%
barometer
mb
20260904080028 11 261 8.0 14.5 0.00 0.03 0.00 83 1013.3
20260904075023 11 242 9.7 17.7 0.00 0.03 0.00 82 1013.1
20260904074018 11 263 4.8 12.9 0.00 0.03 0.00 82 1013.0
20260904073116 11 265 4.8 12.9 0.00 0.03 0.00 82 1012.8
20260904072113 11 262 4.8 12.9 0.00 0.03 0.00 81 1012.7
20260904071108 11 266 4.8 12.9 0.00 0.03 0.00 81 1013.0
20260904070105 11 275 6.4 12.9 0.00 0.03 0.00 80 1012.9
20260904065121 11 227 6.4 16.1 0.00 0.03 0.00 80 1012.7
20260904064058 11 260 8.0 14.5 0.00 0.03 0.00 79 1012.5
20260904063056 11 235 9.7 14.5 0.00 0.03 0.00 79 1012.5
20260904062052 11 258 6.4 12.9 0.00 0.03 0.00 78 1012.3
20260904061109 11 259 8.0 14.5 0.00 0.03 0.00 78 1012.2
20260904060045 12 249 9.7 14.5 0.00 0.03 0.00 77 1012.2
20260904055042 12 232 8.0 17.7 0.00 0.03 0.00 75 1012.4
20260904054037 12 230 9.7 16.1 0.00 0.03 0.00 72 1012.2
20260904053033 12 228 8.0 14.5 0.00 0.03 0.00 71 1012.2
20260904052032 13 242 14.5 25.7 0.00 0.03 0.00 71 1012.1
20260904051027 13 243 12.9 24.1 0.00 0.03 0.00 70 1011.8
20260904050022 14 237 17.7 24.1 0.00 0.03 0.00 70 1011.7
20260904045020 15 231 16.1 25.7 0.00 0.03 0.00 70 1011.5
20260904044017 16 235 14.5 24.1 0.00 0.03 0.00 72 1011.4
20260904043112 16 249 17.7 24.1 0.00 0.03 0.00 78 1011.3
20260904042110 15 256 17.7 24.1 0.00 0.03 0.00 81 1011.1
20260904041127 15 245 12.9 22.5 0.00 0.03 0.00 81 1011.0
20260904035058 15 241 19.3 32.2 0.00 0.03 0.00 85 1010.9
20260904034055 16 229 17.7 27.4 0.00 0.03 0.00 90 1010.9
20260904033052 16 253 16.1 25.7 0.00 0.03 0.00 95 1010.8
20260904032048 16 240 16.1 24.1 0.00 0.03 0.00 99 1010.7
20260904031046 16 232 19.3 33.8 0.00 0.03 0.00 99 1010.7
20260904030040 15 265 19.3 29.0 0.00 0.03 0.00 99 1010.6
20260904025057 14 265 17.7 27.4 0.00 0.03 0.00 99 1010.3
20260904024033 15 267 9.7 17.7 0.00 0.03 0.00 99 1010.1
20260904023031 14 309 8.0 12.9 0.00 0.03 0.00 99 1009.9
20260904022047 13 305 8.0 12.9 0.00 0.03 0.00 99 1009.5
20260904021024 14 314 8.0 12.9 0.00 0.03 0.00 99 1009.5
20260904020019 14 290 8.0 12.9 0.00 0.03 0.00 99 1009.6
20260904015036 14 316 1.6 11.3 0.00 0.03 0.00 99 1009.8
20260904014112 14 280 4.8 11.3 0.00 0.03 0.00 99 1009.9
20260904013132 14 300 4.8 9.7 0.00 0.03 0.00 99 1010.2
20260904012107 14 305 1.6 9.7 0.00 0.03 0.00 99 1010.2
20260904011102 14 310 1.6 8.0 0.00 0.03 0.00 99 1010.2
20260904010058 15 326 3.2 9.7 0.00 0.03 0.00 99 1010.1
20260904005057 15 0.0 4.8 0.00 0.03 0.00 99 1010.4
20260904004052 -17 0.0 0.0 0.00 0.03 0.00 1010.3
20260904003050 -17 0.0 0.0 0.00 0.03 0.00 1010.4
20260904002045 -17 0.0 0.0 0.00 0.03 0.00 1010.3
20260904001042 -17 0.0 0.0 0.00 0.03 0.00 1010.3
20260904000038 -17 0.0 0.0 0.00 0.03 0.00 1010.4
20260903235034 14 0.0 3.2 0.00 0.03 0.00 99 1010.5
20260903234033 14 0.0 0.0 0.00 0.03 0.00 99 1010.8
20260903233030 14 293 0.0 8.0 0.00 0.03 0.00 99 1011.0
20260903232024 13 0.0 1.6 0.00 0.03 0.00 99 1011.1
20260903231020 14 0.0 3.2 0.00 0.03 0.00 99 1011.2
20260903230017 13 0.0 0.0 0.00 0.03 0.00 99 1011.2
20260903225114 13 0.0 0.0 0.00 0.03 0.00 99 1011.3
20260903224111 13 298 0.0 9.7 0.00 0.03 0.00 99 1011.2
20260903223107 13 0.0 0.0 0.00 0.03 0.00 99 1011.2
20260903222105 13 0.0 0.0 0.00 0.03 0.00 99 1011.2
20260903221100 13 0.0 0.0 0.00 0.03 0.00 99 1011.3
20260903220056 13 0.0 0.0 0.00 0.03 0.00 99 1011.5
20260903215053 13 0.0 0.0 0.00 0.03 0.00 99 1011.5
20260903214113 13 0.0 0.0 0.00 0.03 0.00 99 1011.6
20260903213047 13 0.0 0.0 0.00 0.03 0.00 99 1011.5
20260903212043 13 315 0.0 4.8 0.00 0.03 0.00 99 1011.4
20260903211039 13 0.0 4.8 0.00 0.03 0.00 99 1011.2
20260903210037 13 0.0 0.0 0.00 0.03 0.00 99 1011.1
20260903205052 13 0.0 0.0 0.00 0.03 0.00 99 1011.2
20260903204030 13 0.0 0.0 0.00 0.03 0.00 99 1011.2
20260903203025 13 0.0 0.0 0.00 0.03 0.00 99 1011.0
20260903202102 13 0.0 0.0 0.00 0.03 0.00 99 1011.0
20260903201019 13 0.0 0.0 0.00 0.03 0.00 99 1011.2
20260903200115 13 0.0 0.0 0.00 0.03 0.00 99 1011.4
20260903195111 13 0.0 0.0 0.00 0.03 0.00 99 1011.4
20260903194110 13 0.0 0.0 0.00 0.03 0.00 99 1011.3
20260903193104 13 0.0 0.0 0.00 0.03 0.00 99 1011.5
20260903192102 13 0.0 0.0 0.00 0.03 0.00 99 1011.4
20260903191057 13 0.0 0.0 0.00 0.03 0.00 99 1011.5
20260903190053 13 0.0 0.0 0.00 0.03 0.00 99 1011.7
20260903185051 13 0.0 0.0 0.00 0.03 0.00 99 1011.8
20260903184047 13 0.0 0.0 0.00 0.03 0.00 99 1011.9
20260903183043 13 0.0 0.0 0.00 0.03 0.00 99 1011.9
20260903182048 13 0.0 0.0 0.00 0.03 0.00 99 1011.9
20260903181036 13 0.0 0.0 0.00 0.03 0.00 99 1011.9
20260903180055 13 0.0 0.0 0.00 0.03 0.00 99 1012.1
20260903175029 13 0.0 0.0 0.00 0.03 0.00 99 1012.2
20260903174025 13 0.0 0.0 0.00 0.03 0.00 99 1012.2
20260903173022 13 0.0 0.0 0.00 0.03 0.00 99 1012.4
20260903172018 13 315 0.0 6.4 0.00 0.03 0.00 99 1012.6
20260903171116 13 0.0 0.0 0.00 0.03 0.00 99 1012.8
20260903170133 13 0.0 0.0 0.00 0.03 0.00 99 1012.7
20260903165130 13 293 0.0 9.7 0.00 0.03 0.00 99 1012.8
20260903164106 13 293 0.0 9.7 0.00 0.03 0.00 99 1013.0
20260903163101 13 293 0.0 9.7 0.00 0.03 0.00 99 1013.0
20260903162058 13 0.0 0.0 0.00 0.03 0.00 99 1012.9
20260903161054 13 0.0 0.0 0.00 0.03 0.00 99 1013.0
20260903160050 13 0.0 0.0 0.00 0.03 0.00 99 1013.1
20260903155047 13 0 1.6 12.9 0.00 0.03 0.00 99 1013.3
20260903154043 13 328 0.0 12.9 0.00 0.03 0.00 99 1013.2
20260903153101 13 293 0.0 8.0 0.00 0.03 0.00 99 1013.2
20260903152037 13 315 0.0 12.9 0.00 0.03 0.00 99 1013.3
20260903151033 13 0.0 3.2 0.00 0.03 0.00 99 1013.5
20260903150032 13 113 1.6 12.9 0.00 0.03 0.00 99 1013.5
20260903145026 13 315 0.0 6.4 0.00 0.03 0.00 99 1013.7
20260903144023 13 293 0.0 12.9 0.00 0.03 0.00 99 1013.9
20260903143021 13 0.0 4.8 0.00 0.03 0.00 99 1014.0
20260903142017 13 298 4.8 14.5 0.00 0.03 0.00 99 1014.3
20260903141112 13 315 0.0 11.3 0.00 0.03 0.00 99 1014.3
20260903140109 13 315 0.0 12.9 0.00 0.03 0.00 99 1014.4
20260903135105 13 309 1.6 14.5 0.00 0.03 0.00 99 1014.5
20260903134104 13 293 1.6 12.9 0.00 0.03 0.00 99 1014.6
20260903133059 13 308 0.0 8.0 0.00 0.03 0.00 99 1014.7
20260903132055 13 303 3.2 16.1 0.00 0.03 0.00 99 1014.8
20260903131053 13 300 3.2 16.1 0.00 0.03 0.00 99 1014.8
20260903130048 13 235 0.0 16.1 0.00 0.03 0.00 99 1014.8
20260903125044 13 308 4.8 17.7 0.00 0.03 0.00 99 1014.8
20260903124204 13 305 8.0 17.7 0.00 0.03 0.00 99 1014.9
20260903123038 13 297 11.3 17.7 0.00 0.03 0.00 99 1014.8
20260903122035 13 309 12.9 17.7 0.00 0.03 0.00 99 1014.9
20260903121030 13 296 16.1 19.3 0.00 0.03 0.00 99 1014.9
20260903120028 13 304 14.5 19.3 0.00 0.03 0.00 99 1015.1
20260903115024 13 305 12.9 20.9 0.00 0.03 0.03 99 1015.1
20260903114022 13 304 16.1 20.9 0.00 0.03 0.03 99 1015.2
20260903113016 13 298 16.1 20.9 0.00 0.03 0.03 99 1015.4
20260903112113 13 301 17.7 22.5 0.00 0.03 0.03 99 1015.4
20260903111111 13 304 17.7 24.1 0.00 0.03 0.03 99 1015.3
20260903110106 13 303 19.3 24.1 0.00 0.03 0.03 99 1015.5
20260903105126 13 301 17.7 24.1 0.00 0.03 0.03 99 1015.5
20260903104101 13 305 16.1 22.5 0.00 0.03 0.03 99 1015.5
20260903103057 13 305 19.3 27.4 0.00 0.03 0.03 99 1015.7
20260903102052 13 308 19.3 27.4 0.00 0.03 0.03 99 1015.8
20260903101109 13 305 16.1 24.1 0.00 0.03 0.03 99 1015.9
20260903100106 13 296 12.9 17.7 0.00 0.03 0.03 99 1015.9
20260903095042 13 303 16.1 24.1 0.00 0.03 0.03 99 1015.9
20260903094039 13 305 12.9 17.7 0.00 0.03 0.03 99 1015.9
20260903093035 13 299 14.5 17.7 0.00 0.03 0.03 99 1016.0
20260903092031 13 309 17.7 24.1 0.03 0.03 0.03 99 1016.0
20260903091028 13 305 17.7 30.6 0.03 0.03 0.03 99 1015.9
20260903090105 13 313 17.7 25.7 0.03 0.03 0.03 99 1016.0
20260903085021 13 310 19.3 27.4 0.03 0.03 0.03 99 1016.0
20260903084017 13 303 17.7 27.4 0.03 0.03 0.03 99 1016.0
20260903083114 13 307 14.5 17.7 0.03 0.03 0.03 99 1016.0
20260903082110 13 306 14.5 20.9 0.00 0.00 0.00 99 1015.9
20260903081107 13 313 12.9 19.3 0.00 0.00 0.00 99 1016.0